TimeCET,TemperatureF,Dew PointF,Humidity,Sea Level PressureIn,VisibilityMPH,Wind Direction,Wind SpeedMPH,Gust SpeedMPH,PrecipitationIn,Events,Conditions,WindDirDegrees,DateUTC
12:00 AM,39,35,79,30.22,14,West,4.5,,,,Scattered Clouds,260,2014-01-11 23:00:00
1:00 AM,38,34,81,30.24,13,WSW,4.5,,,,Partly Cloudy,250,2014-01-12 00:00:00
2:00 AM,37,34,84,30.25,14,WSW,4.5,,,,Scattered Clouds,240,2014-01-12 01:00:00
3:00 AM,36,34,88,30.26,12,SW,4.5,,,,Scattered Clouds,230,2014-01-12 02:00:00
4:00 AM,37,34,84,30.26,12,WSW,4.5,,,,Scattered Clouds,240,2014-01-12 03:00:00
5:00 AM,31,29,90,30.26,7,SW,4.5,,,,Scattered Clouds,220,2014-01-12 04:00:00
6:00 AM,29,29,100,30.26,3,SSW,4.5,,,,Mist,200,2014-01-12 05:00:00
7:00 AM,29,29,100,30.25,2,South,4.5,,,,Mist,190,2014-01-12 06:00:00
8:00 AM,29,29,100,30.26,1,SSE,4.5,,,,Mist,160,2014-01-12 07:00:00
9:00 AM,29,29,100,30.26,0,South,2.2,,,Fog,Fog,180,2014-01-12 08:00:00
10:00 AM,31,30,96,30.26,1,SSE,4.5,,,Fog,Fog,150,2014-01-12 09:00:00
11:00 AM,35,33,92,30.25,4,SSE,4.5,,,,Mist,160,2014-01-12 10:00:00
12:00 PM,38,35,83,30.24,6,SSE,4.5,,,,Partly Cloudy,160,2014-01-12 11:00:00
1:00 PM,39,36,85,30.21,7,SSE,4.5,,,,Partly Cloudy,160,2014-01-12 12:00:00
2:00 PM,42,37,75,30.18,9,South,8.9,,,,Scattered Clouds,170,2014-01-12 13:00:00
3:00 PM,43,37,72,30.15,9,SSE,6.7,,,,,150,2014-01-12 14:00:00
4:00 PM,41,36,77,30.12,12,SSE,8.9,,,,Scattered Clouds,150,2014-01-12 15:00:00
5:00 PM,38,35,83,30.09,9,SE,6.7,,,,,130,2014-01-12 16:00:00
6:00 PM,37,35,87,30.07,6,SE,6.7,,,,Mist,130,2014-01-12 17:00:00
7:00 PM,35,34,93,30.05,4,ESE,6.7,,,,Mist,120,2014-01-12 18:00:00
8:00 PM,37,34,84,30.01,8,SSE,11.2,,,,Mostly Cloudy,150,2014-01-12 19:00:00
9:00 PM,37,33,79,29.99,10,SE,8.9,,,,Scattered Clouds,140,2014-01-12 20:00:00
10:00 PM,36,32,81,29.96,11,SE,8.9,,,,Mostly Cloudy,140,2014-01-12 21:00:00
11:00 PM,36,32,78,29.91,12,SE,11.2,,,,Scattered Clouds,140,2014-01-12 22:00:00